JOHN2 Weather Reports


time (UTC)temp
F
wind
direction
speed
knots
gust
knots
rain 1hr
in
rain 24hr
in
rain mn
in
humidity
%
barometer
mb
20260507060601 53 336 0.0 7.8 0.00 0.31 0.00 80 1011.2
20260507060059 53 339 0.9 9.6 0.00 0.31 0.00 80 1011.2
20260507055557 53 302 1.7 7.0 0.00 0.31 0.00 81 1011.2
20260507055057 53 9 0.0 7.8 0.00 0.31 0.00 82 1011.1
20260507054607 53 340 1.7 7.8 0.00 0.31 0.00 82 1011.1
20260507054056 53 235 0.9 7.8 0.00 0.31 0.00 82 1011.1
20260507053555 53 318 1.7 7.8 0.00 0.31 0.00 83 1011.0
20260507053055 53 10 2.6 8.7 0.00 0.31 0.00 83 1010.9
20260507052554 53 347 2.6 8.7 0.00 0.31 0.00 83 1011.0
20260507052054 54 331 1.7 7.8 0.00 0.31 0.00 84 1011.0
20260507051555 54 360 1.7 7.8 0.00 0.31 0.00 84 1011.2
20260507051053 54 320 0.9 7.8 0.00 0.31 0.00 84 1011.3
20260507050552 54 346 0.0 7.8 0.00 0.31 0.00 85 1011.1
20260507050052 54 306 3.5 7.8 0.00 0.31 0.00 85 1010.9
20260507045556 54 311 4.3 8.7 0.00 0.31 0.00 85 1011.0
20260507045051 54 312 2.6 8.7 0.00 0.31 0.00 85 1011.2
20260507044551 54 340 1.7 11.3 0.00 0.31 0.00 85 1011.2
20260507044050 54 311 3.5 11.3 0.00 0.31 0.00 84 1011.3
20260507043549 54 328 1.7 9.6 0.00 0.31 0.00 84 1011.4
20260507043047 54 338 1.7 9.6 0.00 0.31 0.00 84 1011.1
20260507042547 55 294 2.6 9.6 0.00 0.31 0.00 83 1011.1
20260507042045 55 328 2.6 9.6 0.00 0.31 0.00 82 1011.1
20260507041553 55 355 3.5 8.7 0.00 0.31 0.00 82 1010.9
20260507041045 55 345 5.2 8.7 0.00 0.31 0.31 81 1011.0
20260507040544 55 20 3.5 8.7 0.00 0.31 0.31 82 1011.1
20260507040042 55 327 1.7 10.4 0.00 0.31 0.31 82 1011.1
20260507035540 55 355 2.6 5.2 0.00 0.31 0.31 81 1011.1
20260507035041 55 336 0.0 7.0 0.00 0.31 0.31 81 1011.1
20260507034540 55 5 3.5 7.0 0.00 0.31 0.31 81 1010.8
20260507034039 55 330 2.6 7.0 0.00 0.31 0.31 81 1011.2
20260507033540 56 340 1.7 7.0 0.00 0.31 0.31 81 1010.8
20260507033042 56 329 0.9 7.8 0.00 0.31 0.31 81 1011.1
20260507032535 56 334 0.0 7.8 0.00 0.31 0.31 81 1010.8
20260507032035 56 17 0.9 9.6 0.00 0.31 0.31 81 1010.3
20260507031535 56 14 3.5 9.6 0.00 0.31 0.31 80 1010.2
20260507031034 56 337 1.7 11.3 0.00 0.31 0.31 80 1010.6
20260507030532 56 18 5.2 11.3 0.00 0.31 0.31 81 1010.8
20260507030033 56 19 4.3 10.4 0.00 0.31 0.31 81 1010.6
20260507025531 57 349 3.5 9.6 0.00 0.31 0.31 80 1010.7
20260507025030 57 5 0.0 7.8 0.00 0.31 0.31 80 1010.5
20260507024530 57 5 1.7 9.6 0.00 0.31 0.31 78 1010.5
20260507024030 57 342 3.5 9.6 0.00 0.31 0.31 78 1010.6
20260507023528 57 316 5.2 8.7 0.00 0.31 0.31 77 1010.7
20260507023027 58 329 2.6 11.3 0.00 0.31 0.31 77 1010.5
20260507022527 58 318 6.1 11.3 0.00 0.31 0.31 77 1010.4
20260507022027 58 274 4.3 12.2 0.00 0.31 0.31 77 1010.3
20260507021526 58 316 6.1 12.2 0.00 0.31 0.31 77 1010.3
20260507021027 58 269 6.1 12.2 0.00 0.31 0.31 77 1010.2
20260507020525 58 322 4.3 12.2 0.00 0.31 0.31 78 1010.3
20260507020027 59 323 1.7 8.7 0.00 0.31 0.31 78 1010.3
20260507015523 59 304 4.3 10.4 0.00 0.31 0.31 78 1010.4
20260507015026 59 315 5.2 10.4 0.00 0.31 0.31 77 1010.5
20260507014534 59 337 4.3 13.9 0.00 0.31 0.31 77 1010.4
20260507014022 59 279 5.2 13.9 0.00 0.31 0.31 77 1010.3
20260507013522 59 296 3.5 11.3 0.00 0.31 0.31 77 1010.5
20260507013034 59 280 5.2 11.3 0.00 0.31 0.31 77 1010.5
20260507012520 60 355 4.3 13.0 0.00 0.31 0.31 77 1010.3
20260507012020 60 271 3.5 13.0 0.00 0.31 0.31 76 1010.5
20260507011531 60 312 6.1 12.2 0.00 0.31 0.31 76 1010.3
20260507011016 60 311 7.0 11.3 0.00 0.31 0.31 76 1010.3
20260507010517 60 294 6.1 13.9 0.00 0.31 0.31 77 1010.2
20260507010015 60 294 7.8 13.9 0.00 0.31 0.31 76 1009.9
20260507005518 60 292 6.1 11.3 0.00 0.31 0.31 77 1010.1
20260507005012 60 322 6.1 13.9 0.00 0.31 0.31 77 1009.9
20260507004516 60 298 7.0 13.0 0.00 0.31 0.31 77 1009.8
20260507004012 61 317 6.1 13.9 0.00 0.31 0.31 76 1009.7
20260507003512 61 295 7.8 13.9 0.00 0.31 0.31 77 1009.8
20260507003010 61 305 7.8 13.0 0.00 0.31 0.31 77 1009.8
20260507002510 61 298 7.0 13.0 0.00 0.31 0.31 77 1009.5
20260507002009 61 297 7.0 14.8 0.00 0.31 0.31 77 1009.2
20260507001508 61 294 5.2 13.0 0.00 0.31 0.31 78 1009.3
20260507001009 61 288 6.1 10.4 0.00 0.31 0.31 78 1009.2
20260507000511 61 310 3.5 12.2 0.00 0.31 0.31 79 1009.0
20260507000019 61 288 7.0 12.2 0.00 0.31 0.31 79 1008.8
20260506235506 62 284 4.3 9.6 0.00 0.31 0.31 80 1008.8
20260506235006 62 293 5.2 11.3 0.00 0.31 0.31 80 1008.7
20260506234505 62 284 5.2 11.3 0.00 0.31 0.31 80 1008.4
20260506234005 62 301 4.3 9.6 0.00 0.31 0.31 80 1008.3
20260506233504 62 268 5.2 12.2 0.00 0.31 0.31 80 1008.2
20260506233005 62 304 7.0 12.2 0.00 0.31 0.31 80 1008.0
20260506232504 63 292 4.3 13.0 0.00 0.31 0.31 81 1008.0
20260506232004 63 275 8.7 13.0 0.00 0.31 0.31 82 1008.1
20260506231504 63 284 4.3 8.7 0.00 0.31 0.31 83 1008.1
20260506231003 63 288 6.1 9.6 0.00 0.31 0.31 84 1008.1
20260506230504 64 309 5.2 10.4 0.00 0.31 0.31 83 1008.0
20260506230004 64 311 3.5 10.4 0.00 0.31 0.31 84 1007.9
20260506225507 65 287 5.2 10.4 0.00 0.31 0.31 85 1007.9
20260506225004 65 283 2.6 7.0 0.00 0.31 0.31 87 1007.9
20260506224504 65 269 1.7 7.0 0.00 0.31 0.31 87 1007.7
20260506224004 65 271 0.9 9.6 0.00 0.31 0.31 87 1007.7
20260506223502 65 282 3.5 9.6 0.00 0.31 0.31 87 1007.6
20260506223005 65 294 2.6 6.1 0.00 0.31 0.31 87 1007.7
20260506222503 65 276 2.6 7.0 0.00 0.31 0.31 87 1007.5
20260506222002 65 236 1.7 8.7 0.00 0.31 0.31 87 1007.4
20260506221502 65 235 3.5 8.7 0.00 0.31 0.31 86 1007.5
20260506221002 65 194 3.5 8.7 0.00 0.31 0.31 86 1007.3
20260506220502 65 226 3.5 8.7 0.00 0.31 0.31 86 1007.2
20260506220001 65 209 3.5 9.6 0.00 0.31 0.31 85 1007.2
20260506215502 65 242 3.5 9.6 0.00 0.31 0.31 85 1007.1
20260506215002 66 232 4.3 8.7 0.00 0.31 0.31 85 1007.1
20260506214502 66 236 3.5 8.7 0.00 0.31 0.31 85 1007.1
20260506214002 66 208 4.3 10.4 0.00 0.31 0.31 85 1006.9
20260506213501 66 240 3.5 10.4 0.00 0.31 0.31 85 1006.9
20260506213001 66 219 2.6 6.1 0.00 0.31 0.31 85 1006.8
20260506212504 66 236 2.6 6.1 0.00 0.31 0.31 84 1006.8
20260506212003 66 228 1.7 6.1 0.00 0.31 0.31 84 1006.8
20260506211601 66 232 0.9 6.1 0.00 0.31 0.31 84 1006.8
20260506211100 66 213 2.6 5.2 0.00 0.31 0.31 83 1006.6
20260506210601 67 213 0.0 7.0 0.00 0.31 0.31 83 1006.6
20260506210126 67 226 2.6 9.6 0.00 0.31 0.31 82 1006.6
20260506205600 67 205 3.5 9.6 0.00 0.31 0.31 82 1006.6
20260506205101 67 235 4.3 8.7 0.00 0.31 0.31 82 1006.6
20260506204600 66 229 3.5 10.4 0.00 0.31 0.31 83 1006.6
20260506204059 66 275 5.2 10.4 0.00 0.31 0.31 83 1006.6
20260506203559 66 216 3.5 11.3 0.00 0.31 0.31 83 1006.5
20260506203103 66 242 6.1 11.3 0.00 0.31 0.31 83 1006.6
20260506202559 66 255 5.2 11.3 0.00 0.31 0.31 84 1006.6
20260506202058 66 234 6.1 11.3 0.00 0.31 0.31 83 1006.5
20260506201600 66 210 2.6 10.4 0.00 0.31 0.31 84 1006.5
20260506201100 66 246 4.3 12.2 0.00 0.31 0.31 84 1006.5
20260506200557 66 238 5.2 12.2 0.00 0.31 0.31 84 1006.5
20260506200140 66 240 4.3 8.7 0.00 0.31 0.31 85 1006.6
20260506195557 65 225 1.7 7.0 0.00 0.31 0.31 86 1006.6
20260506195057 65 231 3.5 7.8 0.00 0.31 0.31 86 1006.7
20260506194604 65 247 3.5 9.6 0.00 0.31 0.31 86 1006.8
20260506194056 65 254 4.3 9.6 0.00 0.31 0.31 86 1006.8
20260506193555 65 259 6.1 9.6 0.00 0.31 0.31 86 1006.8
20260506193055 64 252 4.3 9.6 0.00 0.31 0.31 86 1006.9
20260506192556 64 250 5.2 8.7 0.00 0.31 0.31 86 1006.9
20260506192056 64 250 1.7 7.0 0.00 0.31 0.31 87 1006.9
20260506191555 64 223 4.3 7.8 0.00 0.31 0.31 87 1006.9
20260506191055 64 234 1.7 7.8 0.00 0.31 0.31 88 1006.9
20260506190555 64 221 1.7 6.1 0.00 0.31 0.31 88 1006.9
20260506190056 64 263 3.5 8.7 0.00 0.31 0.31 88 1006.9
20260506185553 64 246 2.6 8.7 0.00 0.31 0.31 88 1007.0
20260506185055 63 250 4.3 8.7 0.00 0.31 0.31 89 1007.0
20260506184555 63 246 3.5 9.6 0.00 0.31 0.31 89 1007.0
20260506184054 63 219 4.3 9.6 0.00 0.31 0.31 89 1007.1
20260506183553 63 199 1.7 7.0 0.00 0.31 0.31 90 1007.2
20260506183054 62 234 1.7 7.0 0.00 0.31 0.31 90 1007.2
20260506182553 62 199 1.7 7.0 0.00 0.31 0.31 90 1007.2
20260506182055 62 228 1.7 8.7 0.00 0.31 0.31 90 1007.2
20260506181553 62 199 4.3 10.4 0.00 0.31 0.31 90 1007.2
20260506181053 62 232 2.6 13.9 0.00 0.31 0.31 90 1007.2
20260506180553 62 230 6.1 13.9 0.00 0.31 0.31 90 1007.4
20260506175553 62 225 3.5 8.7 0.00 0.31 0.31 91 1007.3
20260506175054 62 231 3.5 10.4 0.00 0.31 0.31 90 1007.3
20260506174551 61 240 4.3 13.9 0.00 0.31 0.31 90 1007.4
20260506174052 61 222 6.1 13.9 0.00 0.31 0.31 90 1007.4
20260506173552 61 244 5.2 12.2 0.00 0.31 0.31 90 1007.3
20260506173106 61 234 6.1 12.2 0.00 0.31 0.31 90 1007.3
20260506172555 62 236 4.3 11.3 0.01 0.31 0.31 90 1007.3
20260506172051 61 230 4.3 10.4 0.01 0.31 0.31 90 1007.3
20260506171559 61 217 3.5 10.4 0.01 0.31 0.31 90 1007.4
20260506171051 61 207 3.5 12.2 0.01 0.31 0.31 90 1007.3
20260506170551 61 235 5.2 11.3 0.01 0.31 0.31 90 1007.4
20260506170050 61 232 3.5 10.4 0.01 0.31 0.31 90 1007.5
20260506165550 61 210 5.2 10.4 0.01 0.31 0.31 90 1007.5
20260506165050 61 222 5.2 11.3 0.01 0.31 0.31 91 1007.4
20260506164551 61 219 3.5 8.7 0.01 0.31 0.31 91 1007.5
20260506164051 61 212 4.3 9.6 0.01 0.31 0.31 91 1007.5
20260506163549 61 241 2.6 8.7 0.01 0.31 0.31 91 1007.5
20260506163051 61 233 5.2 10.4 0.01 0.31 0.31 91 1007.4
20260506162551 61 235 5.2 10.4 0.00 0.30 0.30 91 1007.5
20260506162051 61 188 2.6 8.7 0.00 0.30 0.30 91 1007.5
20260506161555 61 207 4.3 8.7 0.00 0.30 0.30 91 1007.5
20260506161048 61 223 2.6 7.0 0.00 0.30 0.30 92 1007.5
20260506160549 61 237 0.9 7.0 0.01 0.30 0.30 92 1007.5
20260506160057 60 252 2.6 8.7 0.01 0.30 0.30 92 1007.6
20260506155548 60 231 1.7 8.7 0.02 0.30 0.30 92 1007.5
20260506155048 60 222 1.7 9.6 0.03 0.30 0.30 92 1007.6
20260506154548 60 185 0.9 11.3 0.04 0.30 0.30 92 1007.5
20260506154048 60 191 2.6 10.4 0.05 0.30 0.30 92 1007.5
20260506153547 60 220 1.7 7.8 0.06 0.30 0.30 92 1007.5
20260506153047 60 160 2.6 7.8 0.08 0.30 0.30 92 1007.5
20260506152547 60 204 1.7 7.0 0.10 0.30 0.30 92 1007.3
20260506152048 60 180 3.5 9.6 0.15 0.30 0.30 92 1007.3
20260506151547 60 200 4.3 10.4 0.21 0.30 0.30 92 1007.3
20260506151046 60 201 4.3 11.3 0.21 0.30 0.30 92 1007.4
20260506150546 60 185 4.3 13.0 0.20 0.28 0.28 92 1007.5
20260506150046 60 188 5.2 13.0 0.20 0.28 0.28 92 1007.6
20260506145548 60 174 5.2 10.4 0.19 0.28 0.28 92 1007.7
20260506145044 60 183 3.5 7.8 0.19 0.27 0.27 92 1007.9
20260506144545 60 191 4.3 7.0 0.19 0.26 0.26 92 1008.1
20260506144043 60 209 1.7 6.1 0.18 0.25 0.25 92 1008.2
20260506143543 60 237 1.7 9.6 0.18 0.24 0.24 91 1008.3
20260506143043 60 225 4.3 9.6 0.17 0.22 0.22 91 1008.5
20260506142543 60 223 2.6 13.0 0.16 0.20 0.20 91 1008.5
20260506142041 60 237 3.5 13.0 0.11 0.15 0.15 91 1008.4
20260506141541 61 213 2.6 6.1 0.06 0.09 0.09 91 1008.2
20260506141040 60 212 2.6 7.0 0.06 0.09 0.09 91 1008.1
20260506140540 60 215 1.7 7.0 0.07 0.09 0.09 90 1007.9
20260506140045 60 232 0.9 8.7 0.07 0.09 0.09 90 1007.8
20260506135539 60 195 4.3 8.7 0.07 0.09 0.09 90 1007.8
20260506135039 60 217 0.9 8.7 0.06 0.08 0.08 90 1007.7
20260506134608 60 195 3.5 7.0 0.05 0.07 0.07 89 1007.7
20260506134038 61 209 2.6 7.0 0.05 0.07 0.07 89 1007.8
20260506133538 61 205 3.5 7.8 0.03 0.05 0.05 89 1007.8
20260506133036 61 199 4.3 13.0 0.04 0.05 0.05 88 1008.0
20260506132536 61 191 6.1 13.0 0.03 0.04 0.04 88 1007.9
20260506132035 61 173 7.8 14.8 0.03 0.04 0.04 87 1008.0
20260506131537 61 188 7.0 13.9 0.02 0.03 0.03 86 1007.9
20260506131035 61 161 6.1 12.2 0.03 0.03 0.03 86 1007.9
20260506130533 61 360 4.3 12.2 0.02 0.02 0.02 86 1007.9
20260506130033 61 202 6.1 12.2 0.02 0.02 0.02 86 1007.9
20260506125531 61 207 7.0 11.3 0.02 0.02 0.02 86 1007.8
20260506125031 61 208 5.2 11.3 0.02 0.02 0.02 86 1007.9
20260506124530 62 360 5.2 11.3 0.02 0.02 0.02 85 1008.0
20260506124032 62 360 5.2 10.4 0.02 0.02 0.02 85 1008.0
20260506123529 62 223 2.6 10.4 0.02 0.02 0.02 84 1008.0
20260506123029 62 199 5.2 10.4 0.01 0.01 0.01 84 1008.0
20260506122529 62 232 3.5 8.7 0.01 0.01 0.01 84 1008.2
20260506122027 62 223 3.5 8.7 0.01 0.01 0.01 84 1008.3
20260506121527 62 234 3.5 8.7 0.01 0.01 0.01 83 1008.5
20260506121026 62 219 3.5 8.7 0.00 0.00 0.00 83 1008.5
20260506120526 62 212 1.7 8.7 0.00 0.00 0.00 82 1008.6
20260506120025 62 360 2.6 9.6 0.00 0.00 0.00 81 1008.6
20260506115525 63 246 3.5 10.4 0.00 0.00 0.00 80 1008.6
20260506115022 63 221 5.2 8.7 0.00 0.00 0.00 78 1008.5
20260506114531 64 215 3.5 10.4 0.00 0.00 0.00 76 1008.3
20260506114019 64 360 3.5 9.6 0.00 0.00 0.00 75 1008.2
20260506113518 65 236 4.3 9.6 0.00 0.00 0.00 73 1008.0
20260506113018 65 204 1.7 9.6 0.00 0.00 0.00 72 1007.9
20260506112515 65 227 4.3 9.6 0.00 0.00 0.00 71 1007.9
20260506112015 66 231 2.6 13.0 0.00 0.00 0.00 70 1007.9
20260506111514 66 247 5.2 13.0 0.00 0.00 0.00 68 1007.9
20260506111012 66 238 3.5 14.8 0.00 0.00 0.00 68 1007.8
20260506110513 66 229 5.2 13.9 0.00 0.00 0.00 67 1007.7
20260506110015 67 360 3.5 8.7 0.00 0.00 0.00 66 1007.7
20260506105510 67 200 4.3 12.2 0.00 0.00 0.00 65 1007.5
20260506105010 67 239 5.2 12.2 0.00 0.00 0.00 64 1007.4
20260506104509 67 214 5.2 14.8 0.00 0.00 0.00 64 1007.4
20260506104009 67 360 7.0 11.3 0.00 0.00 0.00 64 1007.4
20260506103508 67 210 6.1 10.4 0.00 0.00 0.00 64 1007.3
20260506103019 67 360 3.5 11.3 0.00 0.00 0.00 64 1007.3
20260506102507 67 194 4.3 13.0 0.00 0.00 0.00 64 1007.2
20260506102007 67 199 5.2 14.8 0.00 0.00 0.00 64 1007.2
20260506101506 67 205 6.1 13.0 0.00 0.00 0.00 63 1007.2
20260506101005 67 219 4.3 12.2 0.00 0.00 0.00 63 1007.0
20260506100504 67 360 5.2 12.2 0.00 0.00 0.00 63 1007.0
20260506100003 67 360 4.3 11.3 0.00 0.00 0.00 62 1006.8
20260506095502 67 360 5.2 13.9 0.00 0.00 0.00 62 1007.0
20260506095002 67 242 7.8 13.9 0.00 0.00 0.00 61 1006.8
20260506094500 68 360 5.2 11.3 0.00 0.00 0.00 61 1006.8
20260506094100 68 218 4.3 10.4 0.00 0.00 0.00 61 1006.9
20260506093604 68 360 7.0 10.4 0.00 0.00 0.00 61 1007.0
20260506093100 68 198 4.3 13.9 0.00 0.00 0.00 60 1007.0
20260506092557 68 202 5.2 13.9 0.00 0.00 0.00 60 1007.0
20260506092100 68 198 3.5 10.4 0.00 0.00 0.00 60 1007.1
20260506091556 68 360 3.5 9.6 0.00 0.00 0.00 59 1007.1
20260506091056 68 360 4.3 12.2 0.00 0.00 0.00 59 1007.2
20260506090557 68 222 4.3 12.2 0.00 0.00 0.00 59 1007.2
20260506090054 68 238 2.6 10.4 0.00 0.00 0.00 59 1007.3
20260506085553 68 360 4.3 9.6 0.00 0.00 0.00 58 1007.3
20260506085052 69 239 6.1 9.6 0.00 0.00 0.00 58 1007.4
20260506084555 69 272 4.3 12.2 0.00 0.00 0.00 58 1007.3
20260506084055 69 360 5.2 12.2 0.00 0.00 0.00 57 1007.3
20260506083551 69 209 2.6 13.0 0.00 0.00 0.00 57 1007.3
20260506083109 69 190 3.5 13.0 0.00 0.00 0.00 57 1007.3
20260506082550 69 205 3.5 10.4 0.00 0.00 0.00 57 1007.3
20260506082052 69 249 4.3 10.4 0.00 0.00 0.00 57 1007.2
20260506081551 69 208 4.3 10.4 0.00 0.00 0.00 56 1007.3
20260506081048 69 234 2.6 9.6 0.00 0.00 0.00 56 1007.2
20260506080548 69 360 5.2 9.6 0.00 0.00 0.00 56 1007.2
20260506073043 70 207 6.1 14.8 0.00 0.00 0.00 55 1007.2
20260506072543 70 195 5.2 14.8 0.00 0.00 0.00 54 1007.4
20260506072043 70 360 4.3 12.2 0.00 0.00 0.00 54 1007.5
20260506071545 70 360 4.3 8.7 0.00 0.00 0.00 54 1007.5
20260506071041 70 223 1.7 13.0 0.00 0.00 0.00 54 1007.4
20260506070540 70 360 5.2 13.9 0.00 0.00 0.00 53 1007.5
20260506062033 71 360 5.2 15.6 0.00 0.00 0.00 51 1008.0
20260506061538 71 215 6.1 15.6 0.00 0.00 0.00 51 1008.1
20260506061033 71 360 5.2 11.3 0.00 0.00 0.00 50 1008.2